User: anonymous   Login
Location: Unspecified
(0.0000°N, 0.0000°E)
Time: 22:27:57
(UTC+00:00)
Language:

STARLINK-3569 - Orbit

View from above orbital plane
View from above orbital plane
View from above satellite
View from above satellite

Ground track
Ground track

The orbit is defined by the following mean orbital elements,

1 51811U          26145.00300714 +.00000000 +00000-0 -32322-5 0 00000
2 51811  53.2167 356.5359 0001633  83.6707 276.4471 15.08838118    06
Epoch (UTC): 25 May 2026 00:04:19
Eccentricity: 0.0001633
inclination: 53.2167°
perigee height: 539 km
apogee height: 541 km
right ascension of ascending node: 356.5359°
argument of perigee: 83.6707°
revolutions per day: 15.08838118
mean anomaly at epoch: 276.4471°

The dashed part of the orbit path shows where the satellite is in the earth's shadow,  

DLR